World > North America > United States > Ohio > Crooksville

Hourly Crooksville, OH Regional Weather

Feedback E-mail the Weather

Quick WX

Crooksville, OH Weather Maps

°F °C°F °C
Crooksville Weather Map
UTC Time: 8/11/2022, 11:48
Your Time:

Crooksville, OH Regional Weather

Expires:202208111200;;845043
ASUS41 KCLE 111110
RWRCLE
OHIO REGIONAL WEATHER ROUNDUP
NATIONAL WEATHER SERVICE WILMINGTON, OH
700 AM EDT THU AUG 11 2022

NOTE: "FAIR" INDICATES FEW OR NO CLOUDS BELOW 12,000 FEET WITH NO
SIGNIFICANT WEATHER AND/OR OBSTRUCTIONS TO VISIBILITY.


OHZ036-037-039>041-045>050-054>059-063>069-073>076-082>088-111200-
  CENTRAL AND SOUTHEAST OHIO
  
CITY           SKY/WX    TMP DP  RH WIND       PRES   REMARKS
COLUMBUS       FAIR      62  62 100 CALM      30.08R                  
OSU AIRPORT    FAIR      62  60  93 CALM      30.09R                  
BOLTON FIELD   FAIR      60  60  99 CALM      30.09S FOG              
RICKENBACK AFB FOG       61  61 100 CALM      30.08S VSB<1/4          
NEWARK         FOG       61  58  90 CALM      30.08S VSB 1/4          
MARION         FAIR      62  59  90 VRB3      30.09R FOG              
LANCASTER      FOG       61  60  97 CALM      30.09S VSB<1/4          
ZANESVILLE     FOG       61  61 100 CALM      30.08R VSB 1/4          
NEW PHILLY     FOG       62  62 100 CALM      30.07R VSB<1/4          
$$
  

SKY/WX - Weather  TMP - Temperature  DP - Dew Point  RH - Humidity
WIND - Wind Direction/Speed PRES - Barometric Pressure VSB - Visibility
WCI - Wind Chill Index E13G22 Wind - East Wind 13 mph/Gusts of 22 mph

Trending Headlines

Crooksville Radar Loop



Crooksville Quick Facts


National Two Day Weather Forecast


E-mail the Crooksville Weather Forecast

Voice your opinion or tell us about page issues...